Theta_e
321 321 322 322 322 323 324 325 325 326 325 322 322 323 323 324 326 327 326 329 331 331 332 334 333 333 334 334 334 336 337 336 337 339 341 339 335 336 336 334 332 327 325 328 330 324 322 326 326 325 321 319 319 320 320 320 318 317 316 315 313 314 315 315 315 314 316 320 323 327 326 323 324 325 324 326 328 327 323 323 324 325 327 328 327 327 325 324 324 324 324 323 322 321 320 320 318
321 322 322 322 322 323 325 324 323 324 324 321 322 323 323 323 326 327 326 329 331 331 332 333 332 332 333 333 333 335 337 336 336 338 338 335 335 335 332 330 329 328 325 327 328 320 323 328 326 326 326 325 323 323 322 321 321 317 314 313 313 315 316 318 320 317 317 321 324 327 326 326 327 327 326 325 326 325 322 324 326 326 326 327 327 326 324 322 322 322 322 321 321 320 319 318 317
321 322 322 322 323 324 326 324 322 322 322 321 321 321 323 325 327 329 329 330 331 331 333 332 332 332 333 333 334 338 338 337 335 336 336 335 335 333 330 330 330 329 327 329 328 320 323 327 326 326 328 329 327 326 325 325 325 321 316 314 315 316 317 319 323 322 321 323 326 327 327 326 325 326 324 321 320 319 321 322 324 325 325 326 327 327 325 322 319 320 319 319 319 318 318 317 315
321 322 322 322 323 325 327 326 325 322 320 321 321 322 324 327 329 330 330 330 330 332 333 332 333 332 333 333 334 338 338 337 336 334 335 335 334 331 331 331 331 331 331 332 328 322 323 325 326 327 330 331 329 327 326 327 327 322 317 315 316 316 317 318 321 323 322 323 326 326 324 323 324 327 326 325 323 321 323 322 321 321 323 326 327 325 322 318 316 317 316 316 316 316 316 315 314
321 322 322 322 324 325 326 324 324 322 320 321 321 323 325 327 329 329 330 331 330 331 332 332 333 331 332 334 336 337 337 337 336 335 335 335 332 329 332 329 328 332 333 332 326 320 323 327 327 328 330 331 331 329 325 325 326 321 316 314 314 316 317 318 320 322 321 321 324 324 321 323 327 329 329 329 328 328 325 320 321 323 323 323 323 321 316 314 314 314 314 313 313 313 313 313 312
321 322 322 323 324 324 324 323 321 321 321 322 321 321 324 326 328 329 330 330 331 331 331 332 331 331 334 334 336 337 337 337 336 337 335 335 329 325 331 328 327 332 333 333 326 318 320 325 328 329 330 331 332 329 324 322 321 318 316 313 313 317 321 322 321 321 321 320 322 322 320 325 329 329 331 331 330 330 324 317 319 323 321 318 317 316 314 313 313 313 313 312 313 313 313 313 312
321 322 323 324 325 324 325 324 322 322 322 322 321 321 324 326 327 329 329 329 330 330 330 332 330 332 335 333 335 336 337 337 336 338 336 336 327 321 330 329 329 332 332 332 327 321 317 319 327 329 329 330 330 327 324 322 319 317 315 313 314 319 323 325 324 323 324 322 322 322 322 327 330 330 331 331 331 329 321 316 318 318 317 316 315 315 314 314 314 314 314 314 314 314 314 314 313
321 323 322 325 327 327 327 325 323 323 322 321 321 322 324 326 327 327 328 328 328 329 330 332 331 331 332 333 337 336 337 338 336 337 336 335 325 322 330 330 330 332 331 329 326 324 318 317 324 329 330 329 329 328 323 321 320 317 315 314 314 320 324 325 326 325 324 322 321 321 322 326 329 330 331 331 330 327 319 316 319 318 316 316 316 316 316 316 316 316 316 316 316 316 316 315 315
321 323 323 326 329 329 329 324 322 323 322 322 320 321 324 326 327 326 326 327 326 328 329 330 331 330 331 335 337 335 336 338 336 336 336 329 322 326 331 329 330 331 330 327 323 324 322 318 320 324 327 326 326 325 320 318 318 316 315 314 315 321 324 326 327 324 322 321 319 319 321 324 327 328 328 328 326 322 316 316 318 318 317 316 317 316 316 316 317 317 317 317 317 317 317 316 316
321 324 324 328 329 329 328 324 323 323 321 321 321 321 323 325 327 327 325 325 325 327 329 329 331 329 330 336 337 336 335 337 336 336 334 323 322 330 331 328 328 329 328 325 322 323 324 320 317 317 317 317 317 316 315 316 316 314 313 315 317 321 323 325 325 322 320 320 318 318 320 323 324 324 324 323 320 317 316 317 317 316 317 317 317 317 317 317 317 317 317 317 317 317 317 317 317
321 324 324 327 328 328 327 322 322 323 322 322 321 321 322 325 326 327 325 324 324 328 329 328 329 327 329 337 338 337 334 335 335 335 330 319 324 331 331 328 325 326 326 321 318 321 324 322 319 316 314 313 312 312 313 317 316 314 314 319 321 320 320 320 321 319 317 318 318 319 321 322 321 320 320 318 317 316 317 317 317 317 317 317 317 317 317 317 317 317 317 317 316 316 317 317 317
324 326 326 328 328 328 328 325 322 322 323 323 322 321 322 325 326 327 326 324 323 327 328 324 328 326 326 336 337 337 334 333 335 334 326 319 327 331 330 326 322 324 323 319 317 318 321 323 322 320 317 314 313 311 312 316 316 315 316 321 322 319 317 317 318 318 316 316 317 318 320 321 319 318 318 317 317 316 317 317 317 317 317 317 317 317 317 317 317 317 317 317 317 317 317 317 317
324 327 327 329 330 330 329 328 325 322 324 324 323 322 322 324 326 326 325 324 322 324 325 324 327 325 328 337 337 336 334 333 336 333 323 320 328 331 330 324 319 320 319 321 321 317 319 323 324 323 321 317 313 311 311 314 315 316 317 319 320 317 315 316 317 317 315 315 315 317 319 319 318 318 318 317 317 317 318 318 318 317 317 317 317 317 317 316 317 317 317 317 317 317 317 317 318
323 324 326 328 329 330 329 329 327 323 323 323 322 321 323 325 326 326 324 324 324 326 325 324 324 323 328 337 337 336 333 333 336 333 324 322 326 329 329 322 318 316 315 326 326 318 320 321 322 323 322 318 312 310 310 312 314 317 319 319 317 315 316 316 316 317 315 315 316 317 318 318 318 317 317 317 318 318 318 318 317 317 317 317 316 316 317 317 317 317 317 317 317 317 318 318 318
321 321 326 329 328 329 329 330 329 324 322 323 322 322 324 326 325 325 324 325 327 327 324 321 323 325 324 333 338 336 333 333 335 331 325 324 322 326 327 320 317 314 313 326 326 321 322 321 322 322 320 318 312 309 310 310 313 317 319 320 316 315 316 316 317 318 316 317 317 318 318 317 318 318 318 318 318 318 318 318 317 317 317 317 317 317 317 317 318 318 317 317 317 317 318 318 319
318 321 326 328 327 328 329 330 329 325 321 321 322 322 324 325 325 324 324 325 326 325 323 324 323 326 329 333 338 336 332 332 334 329 325 325 321 322 324 319 317 314 313 323 324 323 326 325 324 322 318 315 312 309 310 310 311 316 319 318 316 314 315 316 318 319 317 318 318 318 318 317 318 318 318 318 318 318 318 318 317 317 317 317 318 318 318 318 318 317 317 318 318 318 318 319 319
318 322 327 326 326 327 328 328 328 324 320 321 322 322 324 323 323 323 323 323 325 324 324 327 324 326 332 334 335 335 332 329 331 329 325 325 322 320 320 319 319 316 313 320 321 319 325 327 326 325 319 313 315 315 311 309 310 314 317 316 314 313 314 315 317 318 318 318 318 318 318 318 318 318 318 318 318 318 318 317 318 318 318 318 318 318 318 318 318 317 318 318 318 318 319 319 319
320 324 327 325 327 326 324 322 322 322 319 320 321 323 324 323 323 322 323 322 324 324 325 327 325 324 327 331 334 333 331 329 329 327 325 324 322 320 319 319 319 317 314 318 321 315 317 323 326 326 321 317 320 322 315 309 310 311 314 314 313 312 313 315 316 318 318 318 318 319 319 319 319 318 318 317 317 317 317 318 318 318 319 318 318 318 318 318 318 318 318 318 319 319 319 319 320
324 325 327 327 327 323 320 319 318 319 319 319 318 321 323 323 323 322 322 322 323 324 325 327 326 325 325 330 333 330 329 329 329 327 325 323 321 321 320 319 320 319 316 317 320 315 312 317 322 325 322 323 324 322 317 310 310 309 311 313 312 312 312 314 316 317 318 318 319 319 319 320 319 318 318 318 317 318 317 318 318 318 318 318 318 318 318 318 318 318 318 318 319 319 319 319 320
326 325 328 328 324 320 319 318 317 317 318 319 318 318 320 322 323 322 322 322 323 323 324 325 327 327 325 327 330 328 327 326 328 328 326 324 322 321 320 321 321 320 318 317 318 316 313 312 317 322 322 324 322 320 316 311 310 309 310 311 311 311 311 314 316 317 318 318 319 320 320 321 320 318 318 319 318 318 318 318 318 318 318 318 318 318 318 318 318 318 318 319 319 319 320 320 320
327 324 327 326 321 319 318 317 316 316 317 318 318 317 318 320 322 322 322 323 323 323 323 325 326 327 326 325 326 326 326 323 325 328 327 325 322 322 322 322 322 322 320 319 318 316 316 313 313 317 318 319 319 317 314 311 311 309 310 310 310 310 310 313 316 317 317 317 319 319 322 323 320 317 318 318 318 319 318 318 318 318 318 318 318 318 318 318 318 318 318 318 318 319 320 320 320
327 325 328 324 320 319 316 315 315 315 316 317 317 317 318 318 319 320 321 322 323 322 322 323 323 326 327 326 325 325 325 322 323 326 328 326 323 323 324 325 324 324 322 320 319 317 317 316 314 313 312 313 314 315 313 312 312 311 312 311 310 310 310 313 315 317 316 316 319 319 322 324 319 316 317 318 318 318 318 318 318 318 318 318 318 318 318 318 318 318 318 318 318 319 319 319 320
327 326 327 322 319 317 315 315 315 315 315 316 317 317 317 317 317 318 319 320 321 321 321 322 321 324 327 327 326 325 323 322 321 322 325 325 324 324 325 327 326 324 323 321 320 319 318 318 317 314 312 311 311 311 311 312 312 312 313 312 312 311 310 312 313 315 316 315 318 318 319 321 318 316 317 317 317 317 317 317 317 318 318 318 318 318 318 318 318 318 318 318 318 318 319 319 319
327 328 327 323 320 317 315 315 314 314 315 315 316 315 316 316 317 318 318 319 319 320 319 320 319 322 329 328 326 325 322 321 320 320 322 324 325 324 324 327 328 326 324 322 320 319 319 319 318 317 315 312 310 310 311 311 312 312 313 313 314 312 311 311 311 313 315 314 316 317 316 317 317 316 316 317 317 317 317 317 317 317 318 318 318 318 318 318 318 318 318 318 319 319 320 319 320
327 329 327 321 320 317 315 316 315 314 315 315 316 315 315 316 317 317 317 318 318 318 318 319 317 321 330 330 325 325 323 321 321 321 322 323 324 325 325 327 329 328 326 323 321 319 320 320 319 318 317 315 312 310 311 311 311 312 312 313 313 312 311 311 311 312 314 313 315 316 315 315 316 316 316 317 317 317 317 317 317 317 318 317 318 318 318 318 318 318 318 319 320 320 320 320 320
327 330 327 319 319 317 315 317 316 315 316 317 316 317 317 317 316 317 317 318 317 317 318 320 318 320 329 331 326 323 322 321 321 321 321 322 324 326 326 326 328 329 327 324 322 321 319 319 319 319 319 318 314 311 310 310 310 311 311 312 311 311 311 311 310 311 312 313 314 315 315 315 315 316 316 317 317 317 317 317 317 317 317 317 317 317 317 318 318 318 318 319 320 320 321 321 321
328 330 326 319 320 319 317 318 317 316 318 318 318 319 319 317 316 317 318 318 317 318 318 319 318 319 325 330 328 324 321 320 320 321 322 323 325 326 325 325 327 329 328 326 324 322 320 320 320 320 320 319 317 314 311 310 309 310 311 312 311 311 311 310 310 311 311 312 313 314 314 315 315 315 316 317 316 317 317 317 317 317 317 317 317 317 317 317 318 318 318 319 320 321 321 321 322
327 327 324 321 322 320 319 319 318 318 319 319 318 318 320 318 316 316 318 319 317 318 318 318 318 318 323 326 329 328 324 321 323 323 322 322 323 324 323 322 323 326 327 326 323 321 321 320 320 320 320 320 319 317 314 311 310 310 311 312 312 311 311 310 310 310 310 311 312 313 314 315 315 315 316 316 316 316 316 316 317 316 316 316 316 317 317 318 318 318 319 319 320 321 321 321 322
327 325 325 326 324 323 321 320 319 319 319 318 319 322 324 322 320 319 320 320 318 318 318 319 320 319 321 324 326 328 326 325 325 323 320 319 320 321 321 319 320 321 323 324 322 321 320 319 320 320 320 320 320 319 317 313 310 309 310 311 312 312 312 312 310 310 310 310 311 312 313 314 314 315 315 315 315 315 316 316 316 316 316 316 317 317 318 318 319 319 320 320 321 321 321 321 321
328 326 327 330 329 327 325 322 321 321 320 318 323 328 330 328 326 324 323 321 318 319 318 318 321 320 320 322 324 327 328 327 325 321 318 320 320 320 319 319 320 320 321 323 323 322 321 319 319 320 321 320 320 319 319 316 313 310 309 310 312 313 313 313 312 311 311 310 310 311 312 313 314 314 314 314 315 315 315 316 316 316 316 317 318 318 319 319 319 320 320 321 321 321 321 320 320
327 327 329 332 334 333 329 325 323 323 321 319 325 330 330 329 328 324 321 321 319 319 319 318 321 321 321 322 324 326 327 328 325 321 320 320 320 320 319 319 320 320 320 322 322 322 322 319 318 319 320 320 320 319 319 318 316 313 311 310 311 312 313 314 314 313 313 312 311 311 312 312 312 313 313 314 315 315 315 316 316 317 317 318 319 319 320 320 320 320 321 321 321 321 321 320 321
327 330 332 332 334 333 329 327 326 325 321 320 326 329 329 329 328 326 322 319 318 319 318 318 320 321 322 322 323 325 327 328 326 325 323 322 321 320 319 319 320 320 320 320 320 321 321 319 317 317 318 320 320 319 319 319 318 316 313 311 310 311 312 313 314 314 314 314 314 314 314 313 313 313 314 315 316 316 316 317 318 318 319 320 321 321 321 320 321 321 321 321 321 321 321 320 321
329 331 332 333 333 332 328 327 329 325 320 321 326 329 330 328 326 326 325 319 317 318 318 319 319 320 322 323 324 326 327 328 328 326 325 324 323 321 319 319 319 319 319 319 319 320 320 320 318 317 317 318 319 319 319 320 319 318 316 314 312 312 311 312 312 313 314 314 315 315 315 315 315 315 316 316 317 318 318 319 320 320 321 321 321 321 321 321 321 321 321 321 321 321 320 321 320
330 330 330 331 332 332 328 326 327 324 320 322 325 327 329 327 324 324 323 321 319 319 319 319 320 320 321 322 325 325 326 327 326 324 323 324 323 323 322 321 321 321 320 320 320 319 319 319 319 317 317 317 318 319 319 320 320 319 319 317 315 314 312 312 313 313 313 314 315 316 316 317 317 318 318 319 319 320 320 320 321 321 321 321 321 321 322 322 321 321 321 321 321 321 320 321 320
329 330 329 330 330 332 330 325 324 322 321 324 324 324 325 324 324 322 321 321 318 318 318 318 319 319 319 321 323 325 324 324 323 320 319 321 322 322 323 323 324 323 322 322 322 321 320 320 319 319 319 318 317 318 319 320 320 320 320 319 318 316 314 314 314 314 314 315 316 317 318 318 319 319 320 320 320 320 320 320 321 321 321 321 321 322 322 322 322 322 322 322 321 320 320 320 320
328 329 329 330 328 330 331 324 322 321 322 324 325 324 323 323 323 322 321 320 319 319 318 317 318 318 317 319 322 323 324 323 320 319 318 318 319 320 320 321 321 322 323 323 324 323 322 320 320 320 320 319 318 318 319 319 320 321 321 320 319 318 316 315 315 315 316 316 317 318 318 318 319 319 320 320 320 320 320 320 321 321 322 322 323 323 323 323 323 323 322 321 321 320 320 320 320
327 328 329 330 328 329 329 321 318 320 322 323 324 324 324 324 324 323 323 323 321 321 321 320 320 319 318 317 319 320 321 320 319 318 318 317 317 318 318 318 319 320 321 322 323 324 323 321 320 320 320 320 319 319 318 318 319 320 319 319 318 318 318 317 315 315 315 316 317 318 318 318 318 318 319 319 320 320 320 321 322 323 324 325 325 325 324 324 324 323 322 321 321 321 321 321 321
327 328 330 330 329 330 327 320 317 319 322 325 325 326 326 326 327 325 324 324 322 321 321 321 321 320 320 318 318 318 318 318 318 318 317 316 316 316 316 316 317 317 318 319 320 321 321 321 320 320 320 320 319 319 319 319 318 318 318 318 317 317 317 317 316 315 315 315 316 316 317 317 317 317 318 319 320 321 322 323 324 325 326 326 326 326 325 324 324 323 323 322 321 321 321 321 322
327 329 331 331 330 330 325 319 318 320 323 327 327 327 327 326 327 326 323 324 323 323 322 321 320 319 320 320 319 319 318 318 318 318 318 317 316 316 316 316 315 315 315 316 317 318 319 320 320 320 321 320 319 319 319 319 319 318 318 318 318 318 318 317 316 316 316 316 315 315 316 316 316 317 317 318 319 321 323 324 325 325 326 327 327 326 325 325 324 324 323 323 322 321 322 322 322
328 329 330 331 330 330 326 320 319 319 321 324 324 324 323 323 324 323 323 323 322 323 323 322 321 319 319 320 320 320 319 319 319 318 319 318 317 316 316 316 316 315 315 315 315 316 316 317 317 318 319 319 318 318 318 319 319 319 319 320 320 320 320 319 318 318 317 317 316 317 316 316 316 317 317 317 318 319 321 322 324 325 326 326 326 326 325 324 324 324 323 323 323 322 322 323 322
329 330 330 329 328 330 328 322 320 320 321 320 320 324 324 322 323 323 323 324 322 323 323 323 323 321 319 319 320 320 320 320 319 319 319 319 318 317 316 316 316 316 316 315 315 315 315 315 315 315 316 317 317 316 316 318 319 319 319 320 321 322 321 321 320 319 318 318 317 317 318 318 318 317 317 318 318 318 320 321 322 324 325 326 326 325 324 324 324 324 324 324 323 323 323 323 322
329 329 329 328 327 328 328 326 325 326 327 320 319 328 330 325 324 325 325 324 324 323 322 322 324 323 320 319 319 320 320 320 320 320 320 320 320 319 317 316 316 316 316 316 316 315 315 314 314 315 315 316 316 316 316 317 318 318 318 319 319 320 319 319 318 317 317 317 316 316 317 318 319 319 318 318 318 318 319 320 321 323 324 325 325 325 324 324 324 324 324 324 323 323 323 323 322
328 329 328 327 327 329 329 328 329 331 329 322 319 328 330 326 324 324 325 326 326 324 322 322 323 323 321 319 319 319 320 320 320 320 320 320 320 319 318 317 316 317 317 317 316 316 315 315 315 314 315 315 315 316 317 317 317 317 317 317 316 316 316 315 315 316 316 316 316 316 316 317 318 319 319 318 318 318 318 319 319 320 322 323 324 325 324 324 325 325 325 324 323 323 322 322 322
328 328 328 327 327 329 329 327 329 330 328 324 321 326 329 328 326 325 325 326 326 325 324 322 321 321 321 320 320 319 320 320 320 320 319 318 319 318 318 318 317 316 317 317 316 316 316 316 315 314 314 314 314 315 317 317 316 316 316 316 315 315 314 314 314 316 317 317 316 316 316 316 317 318 318 318 319 319 318 318 319 319 320 322 324 324 324 324 325 325 325 324 324 323 322 322 322
327 328 328 327 326 328 328 327 328 328 328 327 326 326 329 329 327 325 326 326 325 325 325 324 322 321 320 319 319 319 319 320 320 321 320 319 318 317 317 317 317 316 316 316 316 317 316 316 315 315 314 314 314 314 316 316 315 315 316 316 316 315 315 315 315 316 318 318 318 317 317 316 317 317 318 318 319 319 319 318 319 320 320 321 322 323 324 324 325 325 325 325 324 324 323 322 322
325 326 327 327 326 325 326 327 326 325 327 327 327 327 330 330 327 325 327 327 326 326 326 326 324 323 322 320 319 319 319 319 318 318 319 318 318 317 317 316 316 316 315 316 316 316 316 316 315 315 315 315 314 314 314 315 314 314 315 315 315 315 315 315 316 317 317 318 318 317 317 317 317 317 318 318 319 319 319 320 320 320 320 321 321 322 323 323 324 324 325 325 325 324 323 322 322
323 325 326 325 324 323 323 324 323 326 328 328 327 326 328 330 329 326 326 326 326 326 326 326 324 322 322 320 320 319 319 319 318 317 317 316 316 316 316 316 315 315 315 315 315 315 316 315 315 315 315 315 314 314 315 315 315 315 314 314 314 313 314 315 317 317 317 317 318 317 317 317 317 318 318 318 319 319 319 320 320 320 320 320 320 321 322 322 322 323 325 325 326 325 323 323 324
323 325 324 324 324 323 324 323 323 328 329 326 325 327 327 330 330 326 325 324 323 324 323 324 323 320 319 319 318 318 318 317 316 315 314 314 314 314 314 314 314 314 315 315 315 315 315 315 315 315 315 315 314 315 315 315 317 317 315 314 314 314 315 316 316 316 316 317 318 317 318 318 318 318 318 318 317 317 318 319 320 320 320 320 320 320 321 321 321 322 325 326 326 325 323 324 325
325 325 325 327 326 325 326 326 325 328 327 321 323 326 327 327 326 324 324 323 322 322 321 321 321 318 317 317 316 317 317 316 315 315 314 314 314 314 313 313 313 313 313 314 314 315 314 315 314 315 315 315 314 314 315 316 317 318 317 316 316 316 317 317 317 317 317 318 318 318 318 318 318 318 317 316 315 315 316 317 318 318 319 319 319 320 321 322 321 321 323 325 325 324 323 324 325
324 324 325 328 327 326 327 326 326 328 324 318 320 324 326 325 323 322 323 322 321 320 319 320 319 317 317 316 315 314 314 315 316 315 314 314 314 314 314 313 313 313 313 313 313 313 313 313 313 313 314 314 313 314 314 315 316 316 317 317 317 317 317 318 318 318 318 319 319 319 319 318 318 317 316 316 316 316 316 316 317 317 318 319 320 321 323 322 322 320 319 322 325 323 322 323 324
323 324 325 327 327 327 327 326 328 329 323 317 319 325 328 328 323 320 318 318 318 318 318 318 317 317 317 315 313 312 313 314 313 313 312 312 313 313 313 312 312 312 312 313 312 313 313 313 313 313 313 313 313 313 313 313 314 314 315 316 316 316 316 315 316 317 318 318 318 319 319 319 318 316 316 316 317 318 318 317 317 317 317 318 320 322 324 324 323 321 319 323 326 324 324 325 323
323 324 325 326 328 327 326 325 325 326 324 321 321 325 326 324 321 318 318 319 317 316 316 316 317 317 315 315 313 313 313 313 312 311 311 311 311 311 311 311 311 311 312 312 312 312 312 312 312 312 312 312 311 312 312 312 312 312 313 313 314 315 315 315 314 314 316 317 317 318 318 319 319 318 318 318 319 319 320 319 318 316 317 318 319 322 325 325 324 322 322 324 325 324 326 326 323
323 325 325 325 326 325 326 326 322 322 326 325 323 324 322 320 321 321 321 323 320 317 316 315 316 316 314 314 313 312 312 311 311 311 311 312 312 312 312 312 311 311 311 312 311 312 312 312 312 312 312 312 311 311 311 311 311 311 311 311 312 313 313 313 313 313 314 316 318 318 318 320 321 320 321 321 321 321 322 321 320 317 317 318 319 322 324 326 325 324 323 323 323 324 326 324 322
323 325 324 323 326 325 324 326 324 323 326 326 325 324 323 324 326 324 322 323 321 319 317 316 316 315 314 313 312 311 311 311 311 311 311 311 311 312 312 312 312 311 311 312 312 312 312 312 312 312 312 312 312 312 312 312 312 311 311 311 311 311 311 312 312 313 315 317 318 318 319 320 321 321 322 323 322 323 324 323 321 319 317 318 320 322 325 326 326 325 324 322 322 323 322 322 323
321 323 322 323 327 326 324 325 327 326 324 326 328 326 325 325 324 323 323 323 321 320 320 319 315 314 314 312 311 311 311 311 311 311 311 311 311 312 312 312 312 311 311 311 311 311 312 312 312 312 312 312 312 312 312 312 312 312 312 312 312 312 311 312 313 314 316 317 317 318 319 320 321 321 322 323 323 324 324 323 321 319 318 318 320 323 326 327 326 325 324 322 322 321 320 323 325
318 321 322 323 325 326 325 324 327 328 326 327 329 327 328 327 321 320 323 324 321 321 322 319 314 313 313 312 311 311 311 312 312 312 312 312 312 312 311 312 312 312 311 310 310 311 311 312 312 312 312 312 312 312 312 312 312 312 312 312 312 312 312 312 312 313 314 315 315 317 318 319 320 321 322 323 323 323 323 322 320 319 318 318 320 323 326 328 328 326 324 323 322 321 321 324 325
319 322 323 322 323 324 325 324 325 327 327 328 328 327 329 326 320 320 320 321 322 321 322 318 313 313 313 312 312 312 311 312 312 312 312 312 312 312 311 312 312 312 311 310 310 311 311 312 312 312 312 312 312 312 312 312 312 312 312 312 312 312 312 311 311 311 311 312 313 315 316 317 318 320 321 323 323 322 322 322 320 320 319 319 321 324 326 329 329 328 326 325 323 322 321 322 322
319 321 321 321 321 322 324 325 324 324 325 327 325 325 328 323 320 321 320 322 323 319 318 316 313 313 313 312 312 312 312 312 312 312 312 312 312 312 312 311 312 312 312 311 310 311 311 312 312 312 312 312 312 312 312 313 313 313 313 312 312 311 311 311 311 311 311 310 311 313 314 317 319 321 322 324 324 324 323 323 322 321 320 321 322 325 327 329 329 328 327 326 325 323 322 322 322
Wind_Speed
11 13 13 15 15 17 13 4 4 3 3 0 4 4 3 4 3 5 5 3 3 7 8 9 10 11 6 3 9 15 14 8 4 3 4 13 16 12 12 10 10 10 9 13 12 10 12 16 16 15 13 11 10 8 6 6 6 6 5 5 5 6 7 7 8 9 9 10 12 12 12 13 13 14 15 16 16 15 16 17 17 17 17 16 16 15 14 14 14 13 13 13 14 14 15 16 17
10 12 13 14 16 13 9 4 2 3 3 3 5 4 4 2 2 5 5 4 7 6 7 8 8 8 4 5 8 12 15 13 12 13 16 20 17 13 12 11 13 11 9 14 12 12 14 16 17 15 14 13 12 11 9 9 8 7 6 7 6 7 8 8 8 9 10 10 12 12 13 14 15 16 16 16 16 15 16 17 17 16 15 15 15 14 14 14 14 14 14 14 14 15 16 16 17
8 10 12 12 15 12 10 5 2 4 1 5 3 3 4 3 4 7 8 11 13 9 7 7 6 5 4 5 8 10 10 12 15 18 20 19 16 14 13 14 14 10 9 12 11 12 14 16 16 15 14 12 12 11 10 10 9 7 7 7 8 8 8 9 9 10 11 12 13 13 14 15 17 18 18 17 16 15 15 16 15 15 15 16 16 16 15 15 15 15 15 15 15 16 16 17 17
8 9 11 11 13 10 6 3 3 4 3 4 3 2 2 5 8 10 11 13 12 8 6 5 3 4 7 6 8 11 11 11 12 16 19 15 14 16 16 16 15 12 8 8 10 12 14 16 16 14 14 12 12 10 8 9 9 8 8 8 8 9 10 10 10 10 11 12 13 13 14 17 20 19 18 16 15 15 14 14 15 16 16 16 16 16 15 16 16 15 15 15 16 16 17 17 17
8 8 9 10 8 6 2 2 3 2 4 2 4 3 2 7 9 9 10 11 9 6 4 4 2 4 6 8 7 7 10 12 12 12 16 14 13 18 17 16 17 14 8 7 11 13 14 15 15 14 13 13 12 10 7 7 8 8 9 8 8 10 11 12 11 12 12 13 13 14 16 20 21 18 16 14 14 14 12 12 16 16 15 16 16 15 15 16 16 16 16 16 16 16 17 17 16
8 10 8 8 7 5 2 3 2 4 4 4 4 2 3 8 11 11 11 11 7 4 2 2 3 5 6 8 9 8 9 12 12 10 14 16 14 17 18 15 18 15 11 10 10 13 15 15 15 14 13 13 11 10 8 5 5 6 8 8 9 11 12 12 12 13 13 13 14 16 18 20 20 18 16 14 13 12 10 12 15 16 15 15 16 16 15 15 16 16 16 16 16 16 16 16 15
8 10 7 6 7 4 2 4 1 5 4 5 5 2 5 10 13 12 10 8 5 4 2 1 2 4 6 7 9 10 11 11 13 11 11 15 15 16 17 15 18 15 11 10 9 12 14 14 15 14 12 12 11 8 7 5 4 5 7 8 9 11 12 12 12 12 12 13 14 16 18 19 18 17 15 13 12 11 11 12 14 15 15 15 15 15 15 15 16 15 16 16 15 15 15 15 14
7 9 6 3 3 3 3 5 2 5 2 4 6 5 6 11 13 10 7 6 5 5 4 2 1 1 4 8 8 8 12 11 14 14 9 15 17 16 16 15 18 15 10 9 11 13 13 14 14 13 11 10 10 8 6 6 5 5 6 6 8 10 11 12 12 12 12 12 13 15 17 17 16 15 14 13 11 11 12 12 13 15 15 14 14 14 14 15 15 15 15 15 15 14 14 14 13
7 8 7 3 2 2 4 3 3 5 4 4 5 4 5 9 11 8 6 7 6 7 7 4 3 1 5 12 11 9 12 9 13 15 10 16 19 17 16 16 18 16 12 9 11 14 13 13 13 12 10 8 8 7 5 5 6 6 7 7 8 10 11 11 11 11 11 11 12 14 16 15 15 15 13 13 12 12 12 12 13 14 14 13 13 12 13 13 14 14 14 14 13 13 13 13 12
8 7 5 3 2 3 5 1 4 3 5 5 6 6 4 6 7 8 7 7 8 7 7 5 2 1 4 13 12 9 12 11 12 14 14 19 20 16 15 16 16 15 12 10 12 14 13 12 12 11 10 7 6 5 5 5 6 7 10 9 9 10 11 11 11 10 11 11 12 14 15 15 15 14 13 13 13 13 13 13 13 13 12 12 11 12 12 12 13 12 12 12 12 12 12 12 11
7 6 3 2 3 3 2 2 4 3 6 6 8 7 5 5 4 7 8 7 7 7 8 5 2 2 2 11 10 8 12 12 11 15 18 21 20 15 15 15 15 14 10 11 13 13 13 11 10 9 8 7 5 5 5 6 8 10 12 11 10 10 10 10 10 10 11 12 13 14 14 15 15 14 14 14 14 14 13 12 12 12 11 10 10 11 11 11 12 11 11 11 11 11 11 11 11
5 4 2 1 5 2 1 2 2 3 6 5 6 5 5 5 2 4 8 7 6 7 8 5 2 3 3 7 9 10 11 11 12 14 20 22 20 16 15 15 15 14 9 9 12 13 13 11 9 8 8 7 5 5 5 8 9 10 12 12 11 10 10 10 10 10 11 12 13 14 14 14 14 14 14 14 14 13 12 12 11 10 9 9 10 10 10 10 11 10 10 10 10 11 11 10 10
3 4 2 2 4 2 1 1 2 3 3 4 4 5 6 6 4 3 6 7 6 5 7 6 3 3 2 8 10 11 10 13 14 14 21 22 19 17 15 15 14 14 11 8 9 11 12 11 10 9 8 7 6 5 6 9 9 10 10 11 11 10 9 10 11 10 11 13 13 14 13 12 13 13 13 13 13 12 11 11 10 9 9 9 9 9 9 9 9 9 9 9 9 9 9 10 9
2 4 2 2 5 4 2 2 1 2 2 3 4 6 7 4 2 2 3 5 5 5 8 7 3 3 4 9 10 12 12 17 16 15 20 20 20 18 14 15 14 13 12 10 9 10 11 11 11 9 9 8 7 7 8 9 9 9 9 10 11 10 9 10 11 11 12 13 13 14 13 13 12 12 12 12 12 11 10 10 9 9 8 8 8 8 8 8 8 7 7 7 8 8 8 8 9
3 4 2 1 4 4 0 0 1 2 3 2 3 6 7 2 2 3 4 5 6 8 9 5 3 2 0 4 9 14 14 20 18 17 21 19 20 18 15 17 14 12 12 13 11 9 10 10 11 9 9 10 9 8 8 9 9 8 9 10 11 11 10 11 12 13 13 14 14 14 13 13 13 12 12 12 12 11 10 9 9 8 7 7 7 7 6 6 6 6 6 6 6 7 7 7 8
3 3 1 1 3 4 1 2 0 2 2 3 2 5 6 3 4 2 4 6 5 6 6 2 4 1 4 6 9 13 13 20 19 19 23 21 21 19 17 17 14 13 13 13 11 10 11 9 10 8 8 10 10 9 9 9 9 9 10 11 12 12 12 13 14 14 14 14 14 14 14 14 13 13 13 12 12 11 10 9 8 7 7 6 6 6 5 5 5 5 5 5 5 5 6 6 7
2 2 0 1 3 3 1 0 1 3 3 4 3 5 5 4 4 2 0 4 3 5 5 2 4 2 3 7 8 9 12 18 17 19 24 22 22 21 18 17 15 15 14 14 12 12 14 11 10 8 8 10 9 9 10 9 10 10 11 12 13 13 13 14 15 15 15 15 15 15 14 13 13 13 12 12 12 11 10 9 8 8 6 6 5 5 4 4 3 3 3 4 4 4 5 5 5
2 1 2 2 2 3 3 4 3 3 5 5 5 2 2 4 5 4 2 3 3 3 5 6 5 5 4 6 7 9 11 15 16 18 23 23 22 21 19 18 16 15 16 14 13 13 13 13 12 10 9 10 9 9 10 11 11 11 12 13 14 14 15 16 16 17 16 16 15 15 14 13 12 12 12 11 11 11 10 9 9 8 7 5 5 4 3 3 2 2 2 3 3 3 4 3 4
5 2 2 3 2 1 4 6 6 5 6 6 8 3 2 3 6 5 3 6 8 5 6 8 7 8 7 10 10 10 10 13 15 18 22 24 23 22 21 19 17 16 16 15 14 13 12 14 13 12 12 12 11 12 11 12 12 12 13 14 15 15 16 17 17 17 17 17 16 15 14 13 12 12 11 10 10 10 9 9 8 7 7 5 4 3 2 2 1 2 2 3 3 3 3 3 4
6 3 2 2 3 3 5 8 8 7 6 6 8 4 1 3 3 4 3 5 8 8 8 10 11 12 10 12 13 12 11 12 15 18 21 24 24 23 22 20 19 17 17 16 15 13 12 13 13 13 14 14 14 14 13 13 13 13 14 15 16 17 17 18 18 18 17 17 16 15 12 10 10 11 10 10 10 9 8 8 8 7 6 5 4 3 2 1 0 1 2 3 3 4 4 5 6
6 4 4 1 2 2 6 8 8 6 5 5 4 1 1 2 2 3 4 4 4 7 9 11 13 17 16 15 16 15 13 12 14 19 20 22 24 22 21 20 19 17 17 16 16 14 13 13 13 14 14 15 16 15 15 14 15 15 15 16 16 17 18 19 19 19 18 18 17 15 11 10 11 11 11 10 10 10 9 8 8 7 6 5 4 3 2 2 1 2 3 3 4 4 5 5 5
4 5 8 3 1 1 6 6 6 5 4 2 1 1 1 2 2 4 6 5 1 2 2 6 5 11 16 15 16 16 15 13 13 18 20 22 23 23 20 18 18 17 18 18 17 16 15 14 13 14 14 15 15 15 15 15 16 16 16 16 16 17 18 19 19 20 19 18 19 16 13 14 14 12 13 12 11 11 10 9 9 8 7 6 5 4 3 4 3 4 4 5 5 5 6 5 6
3 5 9 6 3 2 5 4 4 4 2 1 1 1 1 2 4 6 9 10 4 4 4 1 1 2 9 12 14 15 15 15 13 15 19 21 22 23 21 19 19 19 20 20 18 17 17 16 15 14 14 15 15 15 15 16 16 16 16 16 16 17 18 19 19 20 20 19 19 18 15 15 15 13 13 13 12 11 10 10 9 8 7 6 6 5 4 5 5 6 6 6 7 7 7 7 8
4 4 7 8 5 5 5 3 3 3 0 1 2 1 3 4 4 4 7 10 8 7 9 8 6 2 9 12 13 13 13 14 13 13 16 19 21 22 22 20 19 19 21 21 20 19 18 18 17 15 15 15 16 16 16 17 17 17 17 17 16 17 18 19 19 19 20 19 20 19 16 15 16 14 14 14 12 11 10 10 10 8 8 7 6 5 5 5 7 8 8 9 8 9 9 10 11
6 6 3 7 6 6 6 4 4 4 3 2 2 4 7 7 6 5 9 13 11 10 10 12 10 6 12 14 13 13 14 15 14 14 15 18 19 21 23 21 19 20 22 22 21 20 19 20 19 17 16 16 16 17 18 18 18 18 18 18 17 17 18 19 19 19 19 19 19 20 16 15 16 15 14 14 13 12 11 11 10 9 9 8 7 7 7 7 8 9 10 10 11 11 11 12 13
7 11 6 7 7 7 6 6 5 5 4 3 3 6 8 7 6 7 14 17 14 12 11 12 11 8 14 15 14 13 14 16 16 16 16 16 19 21 23 23 22 21 23 23 23 23 21 21 20 19 18 17 17 17 19 19 19 19 19 18 18 18 19 18 19 19 19 19 18 19 17 16 16 16 15 14 14 13 13 12 11 11 10 9 8 8 9 9 10 11 12 12 12 12 12 12 11
4 10 6 6 6 7 8 7 7 7 5 5 5 6 8 5 4 5 8 7 7 11 13 12 10 10 15 16 15 14 13 15 16 17 17 18 20 22 23 24 25 24 24 24 24 25 23 22 22 21 20 19 19 18 19 20 19 20 20 20 19 19 19 19 20 20 20 19 18 19 18 16 16 16 16 16 15 14 14 14 13 13 12 11 11 11 11 11 12 14 14 14 13 14 13 11 11
1 2 3 4 6 7 9 9 10 7 4 8 6 6 10 6 5 7 7 4 6 12 12 11 9 9 15 17 16 16 15 14 16 18 19 20 21 22 23 23 25 26 26 26 25 25 25 24 23 23 22 22 21 20 20 20 21 21 21 21 20 20 19 20 21 21 21 20 19 19 18 18 18 18 17 17 16 16 16 15 15 15 14 13 13 13 13 13 13 15 16 15 15 15 15 13 14
1 1 1 5 7 8 12 12 13 10 5 7 3 4 8 8 10 16 19 14 11 13 12 12 12 10 13 16 17 18 18 16 18 19 19 20 21 22 22 20 22 24 26 27 26 25 25 24 24 24 24 24 23 22 22 21 22 22 22 22 21 21 21 21 21 21 21 21 21 21 19 19 19 19 19 18 17 17 18 17 17 16 15 15 15 15 15 15 15 16 17 16 16 16 15 14 13
4 4 4 4 5 7 14 16 14 12 8 10 6 2 6 6 11 19 24 22 16 15 14 14 14 13 14 16 17 19 19 20 21 20 18 19 21 21 21 21 21 22 23 26 27 27 26 25 25 26 26 26 25 24 24 23 23 23 23 23 23 23 23 22 22 22 22 21 22 22 20 20 20 20 20 19 19 18 19 19 18 18 17 17 17 18 17 17 17 17 17 17 16 15 13 11 10
4 5 4 3 3 4 10 17 15 10 9 13 8 3 6 4 7 10 13 17 14 12 13 14 15 14 14 16 18 20 20 21 22 21 19 20 21 21 21 21 22 23 23 24 26 27 27 26 26 26 27 28 27 26 26 25 25 25 24 24 24 25 24 23 23 23 23 23 23 23 22 21 21 21 22 21 21 20 20 20 19 19 18 18 19 19 18 18 18 17 16 16 16 14 13 11 9
3 4 3 4 4 2 4 14 17 10 7 14 9 3 6 6 11 11 7 11 12 12 12 13 15 15 15 17 18 20 20 21 22 22 22 22 22 22 22 22 23 24 23 24 24 25 26 27 26 27 27 28 29 28 27 27 26 26 25 25 25 26 26 25 25 25 24 24 24 25 24 23 23 23 23 23 22 21 21 21 20 20 19 19 19 19 19 19 18 17 16 15 15 14 14 12 10
3 4 3 5 6 4 2 7 15 13 8 11 11 4 4 3 9 12 9 11 12 12 13 12 14 15 16 17 18 20 20 20 20 22 23 24 24 23 23 23 24 24 24 24 24 24 25 26 26 27 27 28 30 29 29 29 28 27 27 26 26 27 27 26 26 26 25 26 26 26 26 24 24 24 24 24 24 23 22 22 21 21 20 20 21 20 20 19 18 17 16 15 15 14 14 12 11
4 5 5 5 5 6 4 2 9 13 8 9 11 7 7 3 5 9 12 15 14 14 15 15 16 16 16 17 19 19 20 20 21 21 22 23 24 24 24 24 24 24 25 25 24 25 25 25 25 26 27 28 30 31 30 30 30 29 28 28 28 29 29 28 27 27 27 27 27 28 27 26 25 25 25 25 25 24 23 23 22 22 22 22 22 21 20 20 18 18 17 16 15 14 13 12 11
6 6 4 5 5 5 5 3 7 11 7 7 10 9 9 8 7 9 14 15 16 16 15 15 16 17 17 17 19 19 19 20 21 21 21 22 23 23 23 24 24 25 26 26 26 26 26 25 25 26 28 29 30 31 32 31 31 31 31 30 31 31 32 30 29 29 29 28 29 29 29 28 27 27 27 27 26 26 25 25 24 24 24 24 23 22 21 20 20 19 18 17 16 15 14 13 12
8 6 5 5 5 6 5 5 8 11 7 6 8 9 9 8 8 11 16 18 19 18 15 15 14 15 17 17 18 20 21 22 21 20 21 21 22 22 23 23 24 25 27 27 27 27 28 27 27 27 29 29 29 31 33 34 34 34 34 34 34 34 34 34 33 32 31 31 31 31 31 31 30 30 29 28 28 28 27 27 26 25 25 25 25 24 23 22 21 20 18 18 16 15 15 13 11
8 6 6 6 5 6 5 5 6 8 6 6 8 8 8 8 7 9 15 17 19 19 17 18 17 17 18 18 19 21 22 23 20 20 21 21 21 22 23 23 24 25 27 28 28 29 29 29 29 29 30 30 30 31 33 35 36 37 38 37 38 37 36 36 36 35 35 34 34 33 33 34 33 33 32 31 30 30 30 29 28 27 26 26 26 26 24 23 22 20 19 18 16 15 14 12 11
8 5 4 5 5 6 2 5 5 3 1 4 6 7 9 9 8 9 12 12 13 16 17 19 20 20 22 23 24 24 23 22 20 20 21 21 21 21 22 22 24 26 27 28 29 29 30 30 30 30 30 31 31 32 33 34 36 37 38 38 38 38 38 38 38 38 37 37 37 37 37 36 37 36 34 33 32 32 32 31 30 29 28 27 27 26 25 24 22 21 20 19 18 16 14 12 12
8 5 4 4 5 4 0 5 5 4 1 4 4 7 9 8 8 9 12 11 12 16 18 20 23 24 25 26 27 28 26 25 24 24 24 24 23 22 22 23 23 24 25 27 28 29 30 31 31 32 32 33 33 33 33 34 35 36 36 36 37 38 38 38 37 37 38 39 39 39 39 39 39 39 37 36 35 34 33 33 32 31 30 29 28 28 27 25 24 23 22 22 20 19 16 15 15
6 4 4 4 4 5 2 1 2 4 2 4 4 6 7 8 9 9 15 20 20 22 25 26 27 28 29 28 28 29 28 28 27 27 27 27 27 26 26 25 24 23 24 25 27 29 31 31 32 32 32 33 33 33 33 33 34 35 35 36 36 37 37 37 37 38 39 39 40 40 41 41 41 41 40 39 37 35 35 34 34 33 32 31 31 30 29 28 26 24 23 23 21 21 20 18 18
7 6 5 4 5 6 3 2 3 3 3 3 3 5 5 8 10 9 14 22 24 27 28 28 30 30 30 29 28 28 28 29 30 30 31 31 30 30 29 28 26 25 24 25 26 28 30 31 31 31 32 33 33 33 32 33 34 35 35 35 35 36 37 37 39 40 41 41 41 42 42 42 42 42 42 41 39 37 36 36 35 35 34 33 33 33 32 30 29 26 24 23 22 22 22 21 21
7 7 6 6 5 5 4 5 3 1 2 2 0 3 4 5 7 6 4 7 12 17 20 22 27 27 26 28 28 29 29 30 31 32 33 33 33 32 30 29 28 27 26 25 25 26 26 28 29 31 31 32 33 33 32 33 34 35 36 36 36 38 39 41 42 43 42 42 42 42 42 42 43 43 43 43 42 40 39 38 37 36 36 36 35 35 34 32 31 28 25 24 24 23 22 23 24
5 6 9 8 6 4 2 2 3 0 1 2 2 2 3 5 7 7 6 5 7 8 10 15 21 22 24 28 30 32 33 33 34 33 32 31 31 31 31 30 30 30 28 26 25 25 25 25 27 29 31 31 32 33 34 34 35 35 36 37 37 38 40 41 41 42 42 42 42 42 42 42 43 44 44 44 44 43 42 41 40 39 38 38 37 37 36 35 33 31 27 26 25 24 22 24 25
3 3 8 9 4 2 1 3 1 2 1 1 3 3 3 5 6 8 8 9 11 11 10 12 18 22 25 27 30 32 33 33 34 35 35 33 31 30 31 32 31 30 29 28 27 26 25 25 26 28 30 31 32 33 35 36 36 36 36 36 37 38 38 39 39 40 41 42 43 43 43 43 43 43 44 45 45 45 44 43 42 41 40 39 39 39 38 37 35 33 30 28 26 25 24 24 25
2 2 4 6 5 3 1 1 1 2 3 2 4 3 3 5 5 7 8 10 12 13 12 11 17 24 26 28 30 30 29 28 28 31 34 34 33 33 33 33 32 30 29 29 29 27 26 26 27 28 29 30 31 33 36 37 37 37 37 37 37 38 38 37 37 39 40 41 42 43 43 44 43 43 43 44 44 45 45 45 43 42 41 40 40 40 40 39 37 35 33 31 28 27 27 25 25
2 1 4 5 2 2 2 2 1 2 1 3 4 4 4 4 4 5 5 8 9 10 9 10 15 20 21 25 27 25 25 23 21 22 26 28 29 30 30 31 31 30 29 29 29 28 28 28 28 29 30 30 31 33 35 37 38 38 38 38 38 38 38 38 38 39 40 40 42 43 43 44 44 44 44 43 43 44 44 45 44 43 42 41 40 40 40 40 39 38 36 34 31 29 29 27 25
6 5 6 6 4 5 4 2 3 1 3 4 6 8 4 3 5 5 4 5 5 5 5 4 6 8 7 9 12 12 14 15 14 15 17 19 21 22 23 26 28 29 29 29 29 29 29 28 29 29 29 30 31 33 34 36 38 39 39 39 39 38 38 39 39 40 40 41 42 42 43 43 43 43 43 43 43 43 43 44 44 43 42 41 40 39 39 39 39 39 38 36 33 31 30 29 26
8 4 5 5 3 3 2 1 2 1 3 2 4 8 7 5 6 4 3 3 0 3 4 4 6 5 3 0 3 6 8 9 9 9 10 12 13 16 18 19 22 25 27 28 28 28 28 28 28 28 28 29 31 33 35 36 37 39 40 40 40 39 39 39 40 41 41 41 42 42 42 42 42 43 43 43 44 44 44 44 44 44 44 43 42 40 39 38 38 39 39 38 36 34 32 30 29
5 4 6 4 3 2 1 2 2 3 3 3 2 2 4 7 7 6 6 6 4 5 5 5 5 2 2 4 5 7 9 10 10 10 10 10 10 12 14 15 16 19 22 24 25 26 26 26 27 27 27 27 29 32 34 35 36 38 39 40 40 40 39 40 40 41 41 41 42 42 43 43 43 43 44 44 44 43 43 44 44 44 45 44 43 41 40 38 37 37 38 38 37 36 35 33 33
7 6 7 4 4 3 2 4 2 2 2 3 1 3 2 5 4 9 13 12 10 10 9 7 5 4 4 5 7 9 11 14 15 13 12 12 11 11 13 14 15 17 18 19 20 21 22 23 24 25 25 25 27 30 32 34 36 36 37 38 39 40 40 40 41 41 42 42 42 43 44 44 45 45 46 46 45 43 42 41 41 42 42 43 42 41 40 39 37 36 37 37 36 36 35 35 34
7 5 5 4 3 4 4 4 3 2 1 2 1 1 2 3 2 6 9 9 7 6 9 9 5 5 5 5 6 7 8 11 12 11 12 12 11 11 11 12 14 16 17 18 19 19 20 20 21 22 22 23 25 27 30 32 34 35 36 37 38 39 40 41 41 42 42 43 44 45 45 45 46 47 46 46 45 43 42 40 39 39 39 40 41 40 40 39 37 36 36 36 37 36 36 34 33
5 4 4 5 4 3 3 2 3 4 2 1 3 3 4 4 5 9 8 7 5 6 9 9 7 6 5 4 3 3 4 6 6 5 5 4 3 4 5 6 8 10 13 15 16 17 18 18 19 20 20 20 22 24 26 29 30 32 34 35 36 38 39 40 42 42 43 44 44 45 47 47 47 47 45 45 45 44 43 41 39 38 37 38 40 40 40 39 38 37 36 38 39 37 35 35 33
3 5 6 3 1 3 3 0 1 3 1 3 4 4 5 3 7 10 10 9 7 8 8 9 9 8 5 4 5 6 7 8 9 10 11 11 10 8 6 4 2 3 5 8 10 12 13 15 16 17 17 18 19 21 23 25 27 29 30 32 34 35 37 39 40 42 43 44 44 45 46 46 46 45 44 43 44 43 42 41 39 37 36 37 38 39 38 38 38 38 38 40 40 38 36 35 35
6 6 6 3 5 3 2 1 1 2 3 3 5 6 4 2 5 5 8 9 7 7 7 8 9 9 9 8 10 12 13 15 16 16 16 15 14 12 10 7 5 3 3 4 5 7 8 9 11 12 13 14 15 17 19 21 23 25 27 29 31 32 34 36 37 39 40 41 43 43 44 46 46 44 43 42 42 42 41 40 38 36 35 35 37 38 38 38 37 38 39 40 40 39 37 36 36
5 6 7 5 1 1 3 2 2 4 4 4 4 7 5 5 5 2 5 10 10 9 7 8 9 11 12 12 13 14 15 15 14 14 13 13 13 12 10 7 4 3 1 2 4 6 6 7 8 9 10 11 13 14 16 17 19 21 23 25 27 29 31 33 35 36 38 39 41 41 42 44 44 43 42 41 41 40 40 39 37 35 34 34 35 38 38 37 36 36 38 39 40 40 38 36 37
1 4 6 4 2 2 4 3 2 3 4 4 3 3 4 6 8 7 8 10 11 11 9 8 9 14 16 15 14 14 14 13 12 12 10 10 10 9 8 6 4 2 2 1 2 4 5 6 6 7 9 10 11 12 14 15 17 18 20 22 23 25 27 29 32 34 36 37 38 39 40 41 41 41 41 41 40 39 38 37 35 33 32 31 33 37 38 38 36 35 36 37 39 39 38 39 39
4 7 8 5 2 2 1 2 2 2 3 3 3 4 5 5 6 10 11 9 9 10 8 8 12 19 20 18 16 15 14 12 11 10 9 8 8 7 6 5 4 3 2 2 1 2 3 4 5 6 7 8 9 11 12 14 15 17 19 20 21 22 24 26 28 30 33 34 35 37 37 39 40 40 40 40 39 38 37 36 34 31 30 29 30 34 36 37 36 36 36 37 38 39 40 40 39
8 7 8 8 5 3 2 4 4 2 2 2 2 4 7 4 4 8 9 7 7 10 12 11 16 24 24 21 18 14 12 12 10 7 7 7 7 5 4 3 3 2 1 1 1 1 2 3 4 5 6 7 8 10 11 13 14 16 17 18 19 20 21 23 25 27 29 31 33 34 35 36 37 38 38 38 37 37 36 35 33 31 28 27 28 30 33 35 36 37 36 37 38 39 39 38 38
Wind_Direction
320 327 333 334 332 328 323 300 271 249 208 104 86 96 64 61 108 113 111 149 91 53 49 63 59 47 39 38 81 77 52 42 56 45 125 130 123 139 165 180 167 158 145 130 129 125 125 123 118 111 112 121 127 136 144 144 133 130 133 125 125 118 106 100 104 104 99 95 94 91 90 90 88 88 89 91 90 88 90 91 91 95 99 101 103 106 106 103 100 96 94 90 85 82 82 83 81
319 327 334 336 330 322 312 289 268 266 203 96 62 79 102 124 159 123 121 105 87 87 77 70 65 49 64 106 87 73 56 58 83 97 118 127 132 161 165 152 149 150 138 129 130 128 134 128 120 119 117 119 123 128 133 134 130 131 130 119 115 113 109 102 104 107 104 101 97 94 94 93 91 89 87 89 93 93 94 95 95 97 99 102 102 99 98 100 99 95 92 87 84 83 84 84 82
323 329 333 336 327 304 287 290 247 280 302 97 71 100 138 139 100 86 82 84 89 101 97 85 85 38 14 96 74 72 78 74 93 110 121 131 142 151 144 140 140 139 129 127 132 130 140 134 124 126 123 124 128 129 131 129 123 122 120 109 104 101 100 98 99 102 104 105 101 99 97 97 95 91 85 82 87 92 94 98 101 101 101 102 99 95 94 96 96 92 89 87 87 87 87 86 84
326 326 329 332 321 297 272 270 243 299 4 84 88 105 131 101 86 77 82 89 99 112 116 125 116 43 14 51 71 84 94 88 102 117 125 142 152 143 144 146 136 135 130 129 143 138 142 137 129 131 127 131 133 133 137 130 115 107 102 93 97 98 97 100 100 101 106 108 106 105 104 104 100 93 89 86 84 85 90 98 101 100 100 101 99 99 97 94 93 91 90 90 90 90 89 87 86
330 325 326 326 313 302 311 290 279 9 18 28 88 97 82 93 96 93 95 97 111 121 133 160 127 85 53 42 52 88 101 104 112 115 127 152 167 148 149 150 133 134 137 139 146 142 146 139 134 137 135 137 135 137 143 132 113 100 94 89 98 104 103 103 103 104 106 108 109 108 111 110 105 101 101 100 95 93 97 105 103 99 97 99 99 97 96 95 95 93 92 91 91 90 89 88 86
335 321 311 294 280 297 312 268 286 80 24 6 81 97 85 96 103 106 102 98 105 118 165 171 99 109 91 63 71 97 117 118 123 136 142 150 169 156 147 143 130 132 151 162 149 142 152 147 141 143 144 146 142 141 145 140 119 102 96 95 107 113 110 106 104 106 108 110 111 110 114 114 110 110 111 109 110 116 114 108 107 104 101 100 99 97 96 97 96 95 93 91 90 89 88 87 86
336 318 308 275 263 262 252 261 325 84 18 11 61 55 87 100 110 118 117 111 111 138 185 50 91 116 108 107 91 97 116 125 139 157 169 162 168 156 139 137 131 136 162 177 159 149 155 152 150 151 153 155 153 153 155 166 157 129 110 103 115 120 115 114 110 109 113 115 117 118 120 119 115 116 120 118 120 128 119 111 111 106 103 101 99 99 99 98 96 95 92 90 88 87 87 86 85
334 311 311 303 266 228 253 283 24 90 52 40 61 24 67 110 125 132 136 138 144 154 160 121 210 245 121 119 97 114 116 121 155 159 180 176 163 145 138 142 135 140 166 168 154 156 157 151 157 160 162 161 159 162 164 183 184 158 133 122 128 126 121 122 120 118 122 122 123 126 127 124 121 124 128 129 127 127 123 117 111 104 103 102 101 101 100 99 96 94 90 88 86 85 85 85 85
308 286 290 287 267 267 257 262 73 94 102 79 79 53 64 115 137 137 127 121 128 141 146 163 224 259 116 105 98 131 123 122 167 164 176 172 154 138 143 148 139 148 167 156 147 158 159 152 157 165 175 176 168 169 164 167 174 164 149 145 143 135 130 131 132 130 131 130 130 130 131 128 129 133 137 139 134 130 128 121 111 107 107 106 106 105 102 99 96 92 89 87 85 84 84 83 83
295 256 272 307 279 276 256 163 97 101 99 80 85 107 101 122 145 140 127 110 124 127 125 152 215 293 106 108 110 135 140 147 163 161 169 164 146 136 149 153 146 157 170 164 157 158 159 156 157 164 173 178 178 171 155 151 160 159 152 150 149 144 138 138 141 140 139 139 136 134 133 132 135 138 139 140 136 134 130 122 115 112 111 111 111 107 104 100 95 91 88 86 85 83 82 80 79
308 248 244 321 272 265 289 61 104 124 110 99 84 101 126 143 159 143 127 106 127 117 116 162 196 239 137 111 120 144 160 161 150 153 163 159 143 138 157 159 154 160 173 168 158 155 158 159 158 161 155 151 163 153 146 157 158 154 151 150 151 152 147 143 144 141 143 144 141 139 138 135 137 140 140 138 136 136 131 123 118 115 115 114 112 109 105 100 95 92 88 85 82 80 77 75 74
308 285 244 243 266 278 4 36 103 109 116 109 84 98 123 143 189 148 126 111 139 132 138 183 144 188 187 110 128 156 173 156 148 162 164 158 141 144 166 165 158 161 173 161 149 153 158 159 158 159 149 145 152 140 151 163 160 156 156 155 154 153 152 151 149 145 146 147 145 144 142 137 137 139 139 138 137 136 130 124 121 118 118 116 113 109 103 98 94 90 86 82 78 75 72 70 70
299 331 318 265 284 305 2 354 78 81 96 77 71 113 130 154 187 147 130 133 149 146 145 164 155 203 146 109 138 165 173 149 157 177 165 159 149 153 169 170 165 164 166 152 152 155 153 160 161 160 153 159 161 143 158 165 163 167 168 165 159 150 151 156 155 152 151 150 147 143 140 135 134 136 135 135 134 131 127 124 124 122 120 118 114 107 100 96 91 86 82 77 73 71 69 67 66
351 351 336 289 306 306 335 344 76 96 82 66 65 126 141 153 171 90 106 127 112 108 129 154 182 218 139 118 150 174 166 154 173 181 164 166 162 158 167 174 171 167 156 146 168 160 152 162 158 163 165 172 174 154 162 166 167 178 181 175 165 154 152 158 158 156 153 150 146 141 138 135 134 133 133 131 129 127 125 126 124 124 123 120 114 107 101 95 90 85 79 74 72 69 67 65 64
344 327 297 273 307 303 221 286 328 88 88 72 62 138 141 106 118 63 43 71 79 115 130 161 182 190 137 110 167 183 167 164 183 179 166 174 172 165 171 179 174 165 156 154 177 165 155 163 154 173 182 180 183 164 167 171 170 181 184 176 167 161 159 161 162 158 153 151 147 144 142 139 138 136 134 130 128 128 128 128 127 127 126 123 114 107 101 94 90 83 77 72 69 67 66 64 61
326 331 329 301 286 295 206 183 59 73 79 77 79 148 135 105 156 90 43 83 105 145 127 142 177 117 35 84 159 185 172 174 189 179 171 178 178 177 177 182 177 167 166 165 179 166 162 176 165 183 194 183 185 175 172 177 176 178 181 176 171 167 166 169 167 161 156 155 152 149 147 145 144 141 140 136 134 134 133 133 130 131 130 126 119 111 105 96 89 80 75 70 65 63 61 61 59
330 5 239 270 250 277 315 292 78 113 113 104 116 158 144 122 170 201 163 123 131 152 129 148 174 172 94 106 160 181 176 184 194 184 178 180 180 185 181 183 184 175 175 175 182 175 170 182 178 187 198 180 182 186 179 180 182 180 181 176 174 172 172 175 171 166 163 160 158 155 152 149 150 148 146 144 142 142 142 141 138 139 139 134 127 119 112 101 93 79 70 62 55 55 54 54 53
199 4 203 234 242 271 343 21 35 100 107 97 97 136 191 130 156 193 206 180 189 158 163 194 186 199 167 128 171 184 183 192 199 192 185 184 183 187 185 187 192 186 182 181 188 189 179 182 182 187 195 181 183 197 189 182 185 185 185 181 178 177 176 178 175 171 169 167 163 161 158 155 158 157 152 152 151 151 153 152 151 152 151 150 141 132 123 106 90 67 50 40 33 33 37 40 44
208 240 229 229 195 292 6 44 40 53 88 94 89 62 302 111 143 175 210 206 195 185 186 194 184 201 185 153 184 201 195 199 199 197 191 190 189 190 191 193 198 196 191 189 194 197 191 190 187 187 192 187 189 202 199 189 188 189 189 186 182 180 180 181 179 176 174 172 169 168 166 163 168 166 159 157 156 157 162 162 164 165 162 163 159 152 143 111 64 31 12 5 5 5 3 4 24
209 214 251 232 136 95 44 60 57 49 73 82 85 77 329 94 131 166 222 230 197 201 195 188 184 195 195 177 197 212 205 207 199 195 196 196 194 194 197 199 202 203 200 199 203 203 200 202 197 193 193 192 195 203 202 194 191 191 191 189 187 185 184 184 182 181 181 178 175 174 171 177 184 173 165 166 165 165 171 176 175 176 177 175 175 173 168 160 296 328 330 331 335 340 344 355 3
181 182 239 256 66 86 72 72 70 58 64 68 85 141 300 108 147 193 233 256 218 224 206 195 198 199 201 192 201 216 212 210 202 196 198 199 197 197 201 206 209 211 210 208 213 213 209 212 209 204 202 199 201 204 203 197 195 194 193 193 191 188 187 187 186 186 188 183 181 180 178 200 206 181 172 176 178 179 181 189 189 189 193 191 193 192 202 219 243 278 294 306 314 322 336 347 341
178 199 237 225 17 70 89 86 82 65 60 70 219 229 51 111 223 241 242 253 196 57 131 175 191 198 205 202 203 215 218 215 209 200 201 203 200 199 200 208 212 214 219 218 216 218 216 218 218 216 216 211 209 209 205 199 198 198 198 198 196 192 190 192 192 191 195 190 186 189 190 204 210 190 179 183 190 193 192 198 202 203 203 203 210 212 227 245 254 264 280 295 305 315 322 322 316
209 220 220 193 168 112 96 103 105 78 36 312 297 352 335 283 266 252 238 246 258 11 4 218 44 180 203 206 206 216 223 223 221 211 207 208 206 205 200 204 213 217 224 226 223 221 219 222 223 220 222 221 219 217 210 204 203 203 203 203 201 197 195 196 199 198 200 198 193 198 202 200 204 198 186 191 201 204 202 206 212 215 214 214 222 232 244 261 276 282 289 297 303 308 308 304 301
214 252 208 183 168 149 133 131 131 133 158 305 328 293 255 262 267 260 242 247 256 291 304 280 283 249 199 205 215 226 231 230 232 225 216 214 214 212 204 202 212 219 225 230 230 226 223 226 229 224 223 225 226 225 220 212 208 208 209 208 206 203 201 200 204 203 204 206 200 205 211 198 200 204 195 198 207 210 212 217 222 225 226 230 237 252 263 274 284 291 295 298 301 301 303 303 301
213 259 207 154 157 158 155 159 155 174 202 245 263 253 250 247 247 258 253 251 255 267 279 273 271 223 199 213 220 225 230 230 232 228 221 219 219 217 209 204 208 218 226 230 232 232 227 228 233 232 227 226 227 229 228 222 214 212 215 214 211 210 208 205 207 209 209 210 205 208 215 203 201 208 203 204 209 213 219 224 229 231 235 242 249 262 272 278 281 285 289 292 295 298 302 303 304
198 235 215 141 172 179 172 184 179 189 208 223 237 257 261 245 239 265 261 255 254 250 248 254 261 219 199 214 220 221 227 228 227 227 227 224 220 218 213 209 209 218 229 232 234 235 231 229 233 235 233 231 228 228 231 231 224 218 218 219 218 217 215 211 211 213 214 214 210 211 216 211 209 212 210 210 213 216 223 227 231 236 239 243 249 257 265 272 277 279 281 283 288 291 292 295 300
208 234 209 148 203 193 188 206 198 197 213 226 236 271 275 243 214 255 258 248 229 218 224 238 250 223 203 209 219 221 224 229 230 226 226 224 220 219 218 215 213 218 228 234 235 235 234 232 231 233 235 235 232 230 231 233 230 224 221 220 221 222 221 218 216 217 218 218 215 214 217 216 217 219 218 218 219 221 226 229 233 237 240 244 248 251 257 262 269 274 277 281 285 287 288 287 287
294 238 157 185 227 211 210 218 204 198 214 220 228 287 281 259 212 230 233 221 202 201 213 233 242 228 210 209 215 220 221 225 229 226 226 227 224 222 223 222 219 220 226 233 238 238 237 234 232 233 234 236 236 233 232 232 231 227 225 223 221 223 224 223 223 222 221 221 220 219 217 218 222 225 225 226 226 228 232 234 236 239 242 244 248 251 255 258 261 269 275 280 282 283 284 278 274
194 167 214 225 219 221 220 216 206 198 196 190 180 311 270 245 228 238 241 237 231 222 223 232 238 232 215 210 212 219 222 217 221 228 233 234 231 229 230 231 227 226 227 231 237 240 239 237 235 234 234 236 237 235 234 232 232 229 226 225 224 224 225 225 226 226 225 224 224 224 222 220 224 227 230 231 232 234 237 239 239 242 244 247 251 253 256 260 262 267 271 274 275 277 276 273 273
209 204 244 242 215 234 217 209 203 194 187 168 141 306 247 239 243 244 242 235 226 225 226 225 230 231 217 211 211 218 222 218 221 231 236 236 235 235 235 235 234 233 230 229 233 236 239 239 236 235 235 237 237 237 236 233 233 231 227 225 226 226 227 227 228 229 229 228 229 230 228 225 227 230 232 235 236 237 240 243 245 246 248 251 255 258 259 262 263 264 268 272 275 278 281 282 285
212 201 218 233 233 264 204 191 189 186 180 165 147 262 243 263 273 256 241 226 215 216 226 224 222 225 220 214 212 217 223 223 225 232 236 235 236 238 238 237 236 236 234 231 232 233 237 239 237 236 236 237 238 237 238 236 234 233 230 226 226 227 227 227 229 230 230 230 231 233 232 230 231 232 235 238 238 239 243 246 249 251 253 256 259 262 263 264 265 266 267 272 277 281 288 290 287
215 209 199 205 216 287 174 173 181 180 170 169 162 244 249 247 254 259 242 206 204 215 230 230 222 220 218 217 215 216 222 227 230 232 235 236 237 239 241 239 237 237 237 236 234 233 236 240 240 238 236 237 238 237 237 239 238 236 234 230 228 229 228 227 228 230 231 232 233 235 233 232 233 234 236 240 241 240 243 248 251 254 257 260 262 265 267 269 271 272 270 270 275 277 279 279 272
210 224 220 198 195 209 157 167 185 172 143 177 187 233 259 219 229 242 236 209 205 216 227 233 233 228 217 215 218 218 220 225 230 232 234 237 239 241 243 242 241 242 242 240 238 236 237 240 242 242 239 237 238 237 236 237 239 238 237 234 231 232 231 228 228 229 231 232 234 236 234 232 233 235 237 240 243 243 244 248 251 255 258 260 264 267 269 272 274 274 273 270 271 273 272 271 267
194 212 230 231 212 203 170 159 194 170 144 185 201 235 252 233 202 197 205 214 218 224 231 238 242 239 227 217 217 222 222 223 230 235 235 237 241 242 242 243 243 244 245 243 242 241 240 241 243 244 243 241 239 237 235 235 238 239 238 236 234 235 234 231 229 229 230 232 234 236 237 234 233 236 238 240 244 245 246 247 250 255 257 259 262 265 267 271 274 273 273 272 270 270 268 266 265
199 201 217 250 247 229 197 152 175 172 176 203 199 227 246 249 245 215 211 215 218 224 229 235 238 236 233 221 214 219 225 226 233 240 240 239 242 244 243 243 244 244 245 245 244 242 242 242 243 244 244 243 240 238 235 233 235 237 238 237 235 235 236 234 231 230 230 232 234 237 239 238 236 237 240 242 244 246 248 248 250 253 256 259 261 263 266 269 273 273 273 273 271 269 269 267 265
211 202 199 231 241 241 217 144 161 176 189 213 207 229 242 242 244 234 229 221 218 224 226 229 230 229 232 227 219 219 225 231 236 239 243 243 243 246 247 246 247 247 247 246 244 242 243 243 243 243 243 243 240 238 236 233 231 233 235 236 236 234 235 235 233 232 232 233 235 237 239 241 240 239 240 242 244 246 248 250 251 252 254 256 258 261 266 269 272 273 272 271 269 268 268 265 262
234 215 200 222 238 245 224 140 168 185 183 209 219 236 245 246 247 238 238 232 224 225 225 228 229 227 227 226 226 226 230 236 239 236 239 244 243 245 246 247 248 248 247 246 244 243 244 246 245 245 244 243 240 237 237 236 232 231 233 236 237 236 235 235 235 234 234 234 235 237 239 242 243 242 241 242 244 246 247 249 250 251 252 254 258 261 265 270 272 272 269 267 266 264 263 264 263
252 240 213 227 234 257 260 122 157 168 167 229 233 254 255 252 257 250 248 243 232 228 224 226 229 229 227 225 226 229 235 240 238 234 236 240 240 242 244 244 246 247 248 249 248 247 247 248 248 247 247 247 245 241 239 239 238 236 236 238 240 241 240 238 237 237 237 237 237 238 239 242 244 244 243 242 243 245 247 249 250 251 252 254 258 261 264 268 269 268 266 265 265 262 259 263 264
245 235 222 232 219 239 330 107 139 129 96 259 259 273 267 265 265 257 253 252 247 240 234 231 228 228 229 228 228 229 233 236 235 235 236 238 241 243 245 246 247 249 251 252 252 252 249 249 250 248 248 249 251 248 243 243 243 242 241 240 241 243 244 244 243 243 242 241 241 242 243 243 245 246 246 245 244 245 247 249 251 253 254 255 257 259 262 265 265 265 263 262 262 261 257 254 256
240 228 217 231 213 213 191 95 171 152 184 262 284 286 276 277 270 260 251 247 248 243 240 239 233 229 229 229 231 230 230 231 232 236 237 238 240 242 245 248 249 248 249 251 251 251 250 250 251 250 250 251 254 254 252 250 248 247 245 243 242 243 245 247 248 247 245 245 245 245 246 246 247 248 249 249 247 247 247 249 252 254 256 257 257 259 262 263 264 264 261 258 257 256 252 249 251
237 231 216 227 225 221 201 162 195 190 210 234 312 307 273 255 247 249 243 234 237 239 238 241 238 233 231 231 232 232 233 233 233 236 239 239 239 241 243 246 248 248 250 253 253 252 252 252 253 253 252 253 256 258 258 255 251 250 247 244 242 242 242 244 245 246 245 244 245 245 245 247 249 250 250 251 250 249 248 249 250 252 254 256 257 259 262 264 264 262 259 256 255 253 251 250 251
232 223 217 242 259 256 212 161 140 338 277 195 354 298 271 268 253 263 268 228 235 235 229 235 238 233 228 229 233 235 237 238 238 240 241 241 240 241 242 243 245 248 250 254 256 257 257 256 254 253 252 253 255 257 258 255 252 251 248 245 244 244 245 245 247 248 248 248 248 247 246 246 248 250 252 253 252 251 250 250 250 251 253 254 256 257 260 261 261 259 258 257 254 252 249 248 247
239 206 199 227 269 311 294 108 101 83 270 199 184 217 272 312 291 285 312 312 284 251 225 227 231 230 226 228 232 237 239 239 239 240 239 239 239 240 242 242 245 247 249 253 255 256 257 257 254 251 251 252 253 254 254 253 252 251 249 248 250 251 252 255 256 255 256 256 256 254 251 249 249 250 252 253 254 254 253 252 252 252 253 254 255 256 257 258 257 257 258 256 254 250 245 242 241
265 208 176 194 226 278 319 35 61 241 343 261 202 176 256 281 267 262 268 273 271 261 250 236 228 226 224 226 232 238 242 242 241 240 238 236 236 238 243 247 249 250 251 252 252 253 254 254 253 251 251 252 253 253 251 252 253 253 252 251 252 254 256 260 261 259 258 259 260 259 258 256 253 251 251 252 253 255 256 255 254 254 254 254 254 255 256 256 255 254 254 253 251 247 243 240 239
275 293 147 164 203 223 181 96 259 309 23 287 218 168 245 266 253 246 234 240 252 249 245 241 234 228 221 224 232 239 245 248 249 247 245 241 238 239 243 248 253 253 253 252 252 253 253 251 250 249 250 251 252 252 251 252 255 256 256 254 254 256 258 259 259 257 257 257 259 260 261 260 259 256 254 253 252 254 256 257 256 255 255 254 253 254 254 254 252 251 250 249 248 244 244 244 242
204 193 98 104 107 49 51 80 78 6 347 237 210 179 235 270 256 245 223 227 238 236 235 235 229 225 220 222 229 238 246 250 253 252 251 249 245 244 244 247 250 252 253 253 252 251 251 250 248 248 249 251 252 252 252 253 254 256 256 256 256 257 258 258 256 255 255 256 257 259 261 262 262 261 259 257 255 254 255 256 255 255 256 254 253 252 251 250 250 248 247 247 246 244 247 250 245
132 119 89 77 65 63 47 40 72 19 274 232 204 198 211 274 255 229 214 238 236 200 208 209 188 183 187 209 222 235 237 234 241 250 251 252 250 248 245 244 244 247 250 252 254 253 252 252 251 250 250 250 252 252 253 253 253 254 256 257 258 259 259 257 255 255 255 255 255 258 260 261 262 263 262 261 259 258 256 255 255 255 255 254 253 251 249 248 248 247 245 245 244 244 249 249 244
126 119 114 93 69 72 56 58 103 203 251 269 223 196 192 226 252 228 199 250 350 118 171 156 123 115 90 89 229 222 211 213 232 249 253 251 248 244 243 244 243 244 247 251 255 257 257 257 256 255 254 253 254 253 253 253 252 253 255 257 259 260 259 258 258 258 257 256 256 258 259 260 261 262 262 262 262 261 258 256 255 254 254 253 252 252 250 247 246 245 244 243 243 245 247 243 243
138 148 146 125 121 118 176 190 184 222 230 271 298 150 205 230 247 257 261 260 217 190 198 172 140 156 285 288 265 242 229 240 255 264 266 261 253 242 240 245 244 243 247 250 253 255 257 258 257 257 256 256 255 253 252 252 251 253 255 256 258 259 258 258 259 260 260 259 259 259 259 260 261 261 263 264 264 264 262 260 258 256 254 253 252 252 250 246 244 243 242 241 241 243 241 237 243
169 168 163 158 148 150 206 194 211 245 244 283 351 59 281 264 256 241 249 262 250 220 208 196 182 202 240 271 270 257 244 249 257 259 261 259 250 236 231 234 235 237 242 244 246 248 250 252 252 254 255 254 253 252 251 251 252 254 255 255 257 257 258 258 259 259 260 260 260 260 260 261 262 263 265 265 265 265 264 264 262 258 256 254 251 250 249 247 244 242 239 238 239 241 241 239 243
179 179 169 190 178 169 186 178 199 204 89 317 263 135 209 210 285 251 240 263 272 222 185 180 197 230 252 265 261 251 236 239 245 243 244 248 244 237 234 236 236 238 240 242 244 245 247 248 249 251 252 251 250 250 250 251 253 254 255 255 256 256 258 259 259 259 259 259 259 260 260 261 262 264 265 265 264 264 263 264 263 261 258 255 251 246 245 246 244 242 240 238 239 241 242 242 243
194 178 171 223 229 161 154 162 173 144 95 277 218 240 235 213 287 288 267 259 248 209 181 174 199 234 247 249 225 209 205 212 222 219 219 220 213 221 233 238 241 245 247 250 252 252 253 254 254 255 256 255 254 253 253 254 255 255 255 255 255 255 256 257 258 259 258 258 258 259 259 260 261 263 264 263 262 262 262 262 262 263 261 256 252 245 242 243 244 243 240 238 241 241 240 240 242
184 194 186 214 348 99 121 136 79 96 275 243 186 247 282 281 283 268 244 245 235 211 199 194 204 203 188 169 146 143 140 131 119 107 99 94 91 89 91 103 145 208 233 242 249 253 254 256 257 259 260 259 259 259 260 261 261 260 260 260 259 258 258 258 259 260 259 259 258 258 258 258 258 259 260 261 261 261 261 260 260 263 261 255 251 245 240 240 242 243 241 239 241 240 239 240 241
148 195 185 109 32 27 103 104 56 117 249 251 186 220 246 227 267 252 214 223 229 214 198 189 187 169 151 147 138 129 120 112 108 102 95 85 78 75 75 82 96 115 166 200 217 228 236 243 248 253 255 257 258 258 259 261 262 263 263 263 263 262 262 262 262 262 261 259 258 258 257 256 256 258 258 259 260 260 259 259 260 262 261 254 249 244 239 239 240 241 241 241 240 239 241 242 242
170 176 160 139 84 240 165 167 176 174 221 268 224 216 217 206 228 255 203 203 212 218 197 172 167 157 151 151 142 131 123 119 113 104 95 80 69 63 60 64 76 84 125 200 209 214 220 231 239 247 253 256 258 260 261 262 262 263 264 264 264 263 263 262 262 262 260 259 259 258 257 256 256 257 256 256 257 257 258 259 260 260 259 254 247 241 238 238 240 240 240 239 238 240 240 240 242
309 166 171 194 207 170 175 175 147 157 195 253 260 218 225 221 210 216 217 198 199 208 191 169 162 157 159 160 151 142 133 125 116 105 92 76 63 54 49 47 45 41 13 297 245 236 233 237 243 247 251 255 258 260 262 262 263 264 265 265 266 265 265 264 263 262 261 261 260 259 257 256 256 256 255 255 256 257 258 259 259 258 256 254 247 239 236 237 239 241 240 239 239 239 237 237 239
170 177 186 198 182 127 157 184 169 144 169 225 254 248 254 244 200 206 211 194 190 187 161 158 161 158 167 169 157 149 142 132 121 105 87 70 60 50 42 34 23 16 357 346 315 260 247 247 250 251 256 261 265 267 268 269 269 269 269 270 271 270 269 267 265 263 263 263 262 260 259 257 256 255 255 254 255 256 258 258 258 257 255 253 246 239 236 236 237 240 240 240 241 239 238 239 239
184 184 183 184 177 136 144 203 205 180 188 203 215 258 268 253 176 191 200 186 173 158 144 157 170 168 174 174 161 152 145 137 129 108 76 57 53 49 43 28 13 3 336 333 353 251 241 251 253 257 264 271 276 279 281 283 282 281 281 280 279 277 274 272 269 267 265 264 263 261 260 258 255 254 254 254 255 256 257 257 257 256 254 250 246 242 238 237 237 239 240 241 241 241 241 241 241